User: anonymous   Login
Location: Cactus School
(34.5700°N, 118.0931°W)
Time: 19:01:45
(UTC-07:00)
Language:

ISS - Orbit

View from above orbital plane
View from above orbital plane
View from above satellite
View from above satellite

Ground track
Ground track

The orbit data is extracted from the following two-line orbital elements,

1 25544U 98067A   18173.53679399  .00016717  00000-0  10270-3 0  9020
2 25544  51.6380 352.0436 0002931 226.7620 133.3289 15.54240245 39348
Epoch (UTC): 22 June 2018 12:52:59
Eccentricity: 0.0002931
inclination: 51.6380°
perigee height: 402 km
apogee height: 406 km
right ascension of ascending node: 352.0436°
argument of perigee: 226.7620°
revolutions per day: 15.54240245
mean anomaly at epoch: 133.3289°
orbit number at epoch: 3934

The dashed part of the orbit path shows where the satellite is in the earth's shadow,  

DLR